Flag for Germany Past Weather in Bornheim (Rheinland), North Rhine-Westphalia, Germany — Yesterday and Last 2 Weeks

Now
62 °F

Overcast.


Feels Like: 62 °F
Forecast: 55 / 70 °F
Wind: 6 mph from West

Location: Aachen-Orsbach

Current Time: Jun 27, 2016 at 8:43:23 PM

Latest Report: Jun 27, 2016 at 7:00 PM


Visibility: 17 mi

Pressure: 30.07 "Hg

Humidity: 90%

Dew Point: 59 °F

Location of Bornheim (Rheinland)Location

Past Weather in Bornheim (Rheinland) — Graph

°F

Bornheim (Rheinland) Temperature Yesterday

Maximum temperature yesterday: 62 °F (at 3:00 PM)
Minimum temperature yesterday: 51 °F (at 6:00 AM)
Average temperature yesterday: 56 °F

High & Low Weather Summary for the Past Weeks

 TemperatureHumidityPressure
High86 °F (Jun 23, 4:00 PM)97% (Jun 13, 10:00 PM)30.28 "Hg (Jun 13, 10:00 PM)
Low50 °F (Jun 16, 3:00 AM)54% (Jun 19, 6:00 PM)29.47 "Hg (Jun 14, 4:00 PM)
Average60 °F85%29.92 "Hg
* Reported Jun 12 7:00 PM — Jun 27 7:00 PM, Bornheim (Rheinland), Weather by CustomWeather, © 2016

Note: Actual official high and low records may vary slightly from our data, if they occured in-between our weather recording intervals... More about our weather records

Advertising

Bornheim (Rheinland) Weather History for the Previous 24 Hours

Scroll right to see more
 ConditionsComfort  
Time TempWeatherWind HumidityBarometerVisibility
7:00 PM
Mon, Jun 27
62 °FOvercast.6 mph90%30.07 "Hg17 mi
6:00 PM62 °FOvercast.6 mph88%30.06 "Hg15 mi
4:00 PM60 °FOvercast.7 mph93%30.07 "Hg6 mi
3:00 PM60 °FDrizzle. Low clouds.6 mph95%30.07 "Hg11 mi
1:00 PM59 °FOvercast.7 mph87%30.08 "Hg12 mi
12:00 PM59 °FOvercast.8 mph84%30.09 "Hg19 mi
10:00 AM57 °FOvercast.6 mph81%30.09 "Hg19 mi
9:00 AM56 °FOvercast.6 mph82%30.09 "Hg22 mi
7:00 AM53 °FOvercast.6 mph86%30.10 "Hg22 mi
6:00 AM52 °FOvercast.7 mph90%30.10 "Hg16 mi
4:00 AM53 °FOvercast.5 mph93%30.10 "Hg13 mi
3:00 AM54 °FOvercast.5 mph92%30.11 "Hg16 mi
1:00 AM54 °FOvercast.5 mph91%30.11 "Hg22 mi
12:00 AM54 °FOvercast.5 mph90%30.10 "Hg25 mi
10:00 PM
Sun, Jun 26
54 °FClear.3 mph92%30.10 "Hg16 mi
9:00 PM57 °FPassing clouds.3 mph84%30.07 "Hg28 mi
8:00 PMN/APassing clouds.6 mphN/AN/A2 mi
Weather by CustomWeather, © 2016

See weather overviewHow to use our weather pages